Location: Grasslands National Park East Block
(49.0708°N, 106.5295°W)
Time: 07:39:42
(UTC-06:00)

SR - Pass Details

Date: 24 October 2019
Orbit: 574 x 882 km, 66.7° (Epoch: 11 November)

Event Time Altitude Azimuth Distance (km) Brightness Sun altitude
Exits shadow 04:24:24 14° 348° (NNW) 2,245 ? -32.3°
Maximum altitude 04:27:36 21° 26° (NNE) 1,891 ? -31.9°
Drops below altitude 10° 04:31:56 10° 73° (ENE) 2,543 ? -31.2°
Sets 04:35:08 0° 90° (E) 3,478 ? -30.7°
